Location: Heiligenberg
(48.5381°N, 7.3897°E)
Time: 21:52:21
(UTC+00:00)

Cosmos 371 Rocket - Pass Details

Date: 26 May 2022
Orbit: 684 x 697 km, 74.0° (Epoch: 03 July)

Event Time Altitude Azimuth Distance (km) Brightness Sun altitude
Exits shadow 01:06:08 24° 239° (WSW) 1,412 4.4 -17.0°
Maximum altitude 01:08:40 45° 299° (WNW) 943 4.0 -16.8°
Drops below altitude 10° 01:13:20 10° 13° (NNE) 2,158 7.1 -16.5°
Sets 01:15:45 0° 20° (NNE) 3,077 8.4 -16.3°
